Regional Weather Roundup
Issued by NWS

Home | Current Version | Previous Version | Text Only | Print | Product List | Glossary Off
Versions: 1 2 3 4 5 6 7 8 9 10 11 12 13 14 15 16 17 18 19 20 21 22 23 24 25 26 27 28 29 30 31 32 33 34 35 36 37 38 39 40 41 42 43 44 45 46 47 48 49 50

579
ASUS44 KLIX 250505
RWRLA
LOUISIANA WEATHER ROUNDUP
NATIONAL WEATHER SERVICE NEW ORLEANS LA
1200 AM CDT SAT OCT 25 2014

NOTE: "FAIR" INDICATES FEW OR NO CLOUDS BELOW 12,000 FEET WITH NO
      SIGNIFICANT WEATHER AND/OR OBSTRUCTIONS TO VISIBILITY.
      SKY/WX - SKY CONDITION AND SIGNIFICANT WEATHER.
      TMP - AIR TEMPERATURE.    DP   - DEWPOINT TEMPERATURE.
      RH  - RELATIVE HUMIDITY.  PRES - PRESSURE.
      HX  - HEAT INDEX.         WCI  - WIND CHILL INDEX.

*  THESE STATIONS ARE NOT NWS OR FAA STATIONS AND ARE NOT UNDER
   NWS QUALITY CONTROL.

LAZ040-048-061>063-065-066-069-250600-
SOUTHEAST LOUISIANA

CITY           SKY/WX    TMP DP  RH WIND       PRES   REMARKS
N.O. AUDUBON     N/A     60  58  92 MISG        N/A
N.O. INTL ARPT CLEAR     59  52  77 N5        30.10S
N.O. LAKEFRONT CLEAR     68  53  58 N12       30.10S
N.O. DOWNTOWN* FAIR      68  48  49 N6        30.10S
SLIDELL        CLEAR     50  47  89 CALM      30.09S
BATON ROUGE    CLEAR     56  48  74 CALM      30.12S
BOOTHVILLE     CLEAR     68  60  75 N5        30.08S
BELLE CHASSE   CLEAR     52  48  86 CALM      30.09S
BOGALUSA*        N/A     50  46  84 CALM      30.12S
NEW ROADS*     FAIR      52  50  93 CALM      30.13S
GONZALES*      FAIR      55  53  94 N3        30.12R
HAMMOND*       CLEAR     54  48  82 CALM      30.13S
HOUMA*         CLEAR     55  49  82 NW3       30.10S
PORT FOURCHON* CLEAR     66  55  68 N7        30.12S

$$

LAZ041-044-053-054-250600-
SOUTHWEST LOUISIANA

CITY           SKY/WX    TMP DP  RH WIND       PRES   REMARKS
LAKE CHARLES   CLEAR     55  52  89 CALM      30.14R
LAFAYETTE      CLEAR     55  52  89 CALM      30.13S
PATTERSON      CLEAR     55  52  88 N3        30.14S
SALT POINT       N/A     62  52  69 N5        30.10S
NEW IBERIA     CLEAR     54  50  86 N5        30.13S
CHENAULT AIRPK CLEAR     57  52  85 CALM      30.14S

$$

LAZ027-028-250600-
CENTRAL LOUISIANA

CITY           SKY/WX    TMP DP  RH WIND       PRES   REMARKS
FORT POLK      CLEAR     54  51  92 E1        30.14S
ALEXANDRIA INT CLEAR     53  52  96 CALM      30.12F
ALEXANDRIA     CLEAR     48  47  96 CALM      30.14S

$$

LAZ001-002-250600-
NORTHWEST LOUISIANA

CITY           SKY/WX    TMP DP  RH WIND       PRES   REMARKS
SHREVEPORT     PTCLDY    60  55  83 W3        30.13R
BARKSDALE AFB  CLEAR     55  54  94 SE2       30.13S
DTN SHREVEPORT CLEAR     58  54  86 CALM      30.13S

$$

LAZ014-016-250600-
NORTHEAST LOUISIANA

CITY           SKY/WX    TMP DP  RH WIND       PRES   REMARKS
MONROE         FOG       51  49  92 CALM      30.14S VSB 1/2
TALLULAH       CLEAR     47  45  93 CALM      30.14S

$$




USA.gov is the U.S. government's official web portal to all federal, state and local government web resources and services.